Tracking 26544 objects as of 9-Dec-2022
HD Live streaming from Space Station
objects crossing your sky now

STARLINK-4505

Track STARLINK-4505 now!
10-day predictions
STARLINK-4505 is classified as:


NORAD ID: 53556
Int'l Code: 2022-101AF
Perigee: 545.5 km
Apogee: 548.3 km
Inclination: 53.2 °
Period: 95.4 minutes
Semi major axis: 6917 km
RCS: Unknown
Launch date: August 19, 2022
Source: United States (US)
Launch site: AIR FORCE EASTERN TEST RANGE (AFETR)
aabbcc
Your satellite tracking list
Your tracking list is empty




NASA's NSSDC Master Catalog

Two Line Element Set (TLE):
1 53556U 22101AF  22342.76203468  .00002354  00000-0  16595-3 0  9992
2 53556  53.2202 352.4483 0002053  41.1863 318.9283 15.08843096 17121
Source of the keplerian elements: AFSPC